Showing default

RISAT-2BR1, 44857

Orbit data source: Space-Track

RISAT-2BR1, 44857 is a payload satellite owned by ISRO (IN) in LEO that was launched on Wed, 11 Dec 2019 UTC via a PSLV-QL launch vehicle from the Sirharikota (SRI). Payload-class satellites include a variety of spacecraft equipped with specific instruments for various scientific and technological missions. These include communications satellites like Starlink; space stations such as the ISS; scientific satellites like the Hubble; Earth observation satellites from companies like Planet Labs, Umbra, and HawkEye 360; GPS; miniature CubeSats for education and research; and military/defense satellites.

Loading next visibility...
Identifier
44857, 2019-089F
Orbit
LEO
Country
Flag of ININ / IND
Related business
Manufacturer
ISRO
Mission
Operational Civil Radar Imaging
Bus & Motor
TECHSAR, Unknown motor
Mass
628 kg wet, 628 kg dry
Launch date (UTC)
2019-12-11 (7 years ago)
Launch vehicle
PSLV-QL
Launch site
Sirharikota (SRI)
Object type
Payload
Rocket body
Debris
Shape & HBR
Hex Cyl + 2 Pan + 1 Dish, 2.5 m
Radar Cross Section
2.910 m², Large (>1 m²)

Expand to show TLE details & history
Last TLE update: 13 hours ago

TLE from 13 hours ago
0 RISAT-2BR1
1 44857U 19089F   26206.52514309  .00002336  00000-0  18461-3 0  9997
2 44857  36.9597 244.1887 0009353 139.7583 220.3853 15.01198663362968
Epoch: 2026-07-25T12:36Z
TLE epoch observation values (Epoch: 2026-07-25T12:36:12.362Z)
Latitude
-0.00002°
Longitude
111.90099°
Altitude
567.269 km
Speed
7.577 km/s
True Right ascension
16h 16m 45s
True Declination
0° 00' 00"
Sunlit
Object was in full shadow at epoch
Visualization orbit readout
Latitude
Unknown
Longitude
Unknown
Altitude
Unknown
Speed
Unknown
Apparent Right ascension
Unknown
Apparent Declination
Unknown
Sunlit
N/A
Visualization observer readout
Local Sidereal Time
15:20:39
Azimuth
Unknown
Elevation
Unknown
Doppler factor
Unknown
Orbital elements
Apogee altitude
572.603 km
Perigee altitude
559.613 km
Semi-major axis
6,944.245 km
Eccentricity
0.00094
Inclination
36.9597°
RAAN
244.1887°
Arg. of periapsis
139.7583°
True anomaly
220.31592°
Mean anomaly
220.3853°
Eccentric anomaly
220.3506°
Mean motion
3.75064 °/min
Orbital period
95.98 mins
BSTAR
0.00018461
Loading maneuver chart data...
Computing Atmospheric mass density...
Loading historical data...
Loading historical data...
Loading historical data...
Loading historical data...
Loading historical data...
Loading historical data...
Loading historical data...

Documentation

Showing up to 5 results
|